Tracking 18186 objects as of 31-March-2017
HD Live streaming from Space Station
objects crossing your sky now

COSMOS 970 DEB

Track COSMOS 970 DEB now!
10-day predictions


NORAD ID: 12862
Int'l Code: 1977-121AQ
Perigee: 795.3 km
Apogee: 1,006.6 km
Inclination: 66.2 °
Period: 102.9 minutes
Semi major axis: 7271 km
RCS: 0.0129 m2 (small)
Launch date: December 21, 1977
Source: Commonwealth of Independent States (former USSR) (CIS)
Launch site: TYURATAM MISSILE AND SPACE COMPLEX (TTMTR)

Note: This is SATELLITE DEBRIS
Your satellite tracking list
Your tracking list is empty





NASA's NSSDC Master Catalog

Two Line Element Set (TLE):
1 12862U 77121AQ  17088.93073270 +.00000417 +00000-0 +28340-3 0  9994
2 12862 066.2092 110.5062 0145265 040.3126 031.0219 14.04874499877132
Source of the keplerian elements: AFSPC